Weather past 2 weeks in Jamestown, Saint Helena

Now
62 °F

Cool.


Feels Like: 62 °F
Forecast: 68 / 72 °F
Wind: 14 mph from Southeast

Location: Saint Helena Island

Current Time: Nov 29, 2014 at 12:33:09 AM

Latest Report: Nov 28, 2014 at 11:00 PM


Visibility: N/A

Pressure: 30.05 "Hg

Humidity: 89%

Dew point: 59 °F

Location of JamestownLocation

Historic Weather in Jamestown — Graph

°F

Jamestown temperature yesterday

Maximum temperature yesterday: 67 °F (at 12:00 PM)
Minimum temperature yesterday: 60 °F (at 2:00 AM)
Average temperature yesterday: 63 °F

Past Weeks' High & Low Weather Summary

 TemperatureHumidityPressure
High69 °F (Nov 26, 2:00 PM)100% (Nov 24, 6:00 AM)30.13 "Hg (Nov 24, 6:00 AM)
Low58 °F (Nov 20, 4:00 AM)63% (Nov 14, 11:00 AM)29.98 "Hg (Nov 28, 4:00 PM)
Average62 °F84%30.06 "Hg
* Reported Nov 13 11:00 PM — Nov 28 11:00 PM, Jamestown, Weather by CustomWeather, © 2014

Note: Actual official high and low records may vary slightly from our data, if they occured in-between our weather recording intervals... More about our weather records

Advertising

Jamestown weather history for previous 24 hours

 ConditionsComfort  
Time TempWeatherWind HumidityBarometerVisibility
11:00 PM
Nov 28
62 °FCool.14 mph89%30.05 "HgN/A
10:00 PM62 °FCool.15 mph89%30.05 "HgN/A
9:00 PM62 °FCool.16 mph93%30.04 "HgN/A
8:00 PM62 °FMild.15 mph87%30.03 "HgN/A
7:00 PM62 °FMild.13 mph89%30.01 "HgN/A
6:00 PM62 °FMild.16 mph87%30.00 "HgN/A
5:00 PM64 °FMild.15 mph84%29.98 "HgN/A
4:00 PM65 °FMild.14 mph76%29.98 "HgN/A
3:00 PM65 °FOvercast.13 mph74%29.99 "Hg16 mi
2:00 PM64 °FSprinkles. Low clouds.15 mph86%30.02 "Hg2 mi
1:00 PM66 °FLow clouds.13 mph73%30.03 "Hg19 mi
12:00 PM67 °FOvercast.13 mph72%30.04 "Hg28 mi
11:00 AM65 °FOvercast.18 mph73%30.06 "Hg28 mi
10:00 AM64 °FOvercast.21 mph73%30.08 "Hg22 mi
9:00 AM62 °FSprinkles. Low clouds.17 mph89%30.08 "Hg2 mi
8:00 AM62 °FCool.16 mph87%30.07 "HgN/A
7:00 AM62 °FCool.14 mph85%30.07 "HgN/A
6:00 AM61 °FCool.15 mph89%30.03 "HgN/A
5:00 AM61 °FCool.15 mph92%30.01 "HgN/A
4:00 AM61 °FCool.14 mph75%30.00 "HgN/A
3:00 AM61 °FCool.17 mph75%30.02 "HgN/A
2:00 AM60 °FCool.14 mph84%30.03 "HgN/A
1:00 AM60 °FCool.15 mph87%30.05 "HgN/A
12:00 AM61 °FCool.16 mph90%30.06 "HgN/A
Weather by CustomWeather, © 2014

See weather overviewHow to use our weather pages